Weather History for Buffalo, NY

Change the Weather History Date:

Friday, July 26, 2013

  Actual Average Record
Temperature  
Mean Temperature 66 °F 71 °F  
Max Temperature 79 °F 80 °F 92 °F (1960)
Min Temperature 53 °F 63 °F 48 °F (1876)
Degree Days  
Heating Degree Days 0 0  
Month to date heating degree days 5 2  
Since 1 June heating degree days 69 66  
Since 1 July heating degree days 5 2  
Cooling Degree Days 1 7  
Month to date cooling degree days 235 171  
Year to date cooling degree days 400 300  
Since 1 June cooling degree days 329 274  
Growing Degree Days 16 (Base 50)    
Moisture  
Dew Point 53 °F    
Average Humidity 63    
Maximum Humidity 83    
Minimum Humidity 42    
Precipitation  
Precipitation 0.00 in 0.11 in 2.47 in (1878)
Month to date precipitation 2.68 2.65  
Year to date precipitation 23.94 21.32  
Snow  
Snow 0.00 in 0.00 in 0.00 in ()
Month to date snowfall 0.0 0.0  
Since 1 June snowfall 0.0 0.0  
Since 1 July snowfall 0.0 0.0  
Snow Depth 0.00 in    
Sea Level Pressure  
Sea Level Pressure 30.07 in    
Wind  
Wind Speed 4 mph (East)    
Max Wind Speed 12 mph    
Max Gust Speed 14 mph    
Visibility 10 miles    
Events      
T = Trace of Precipitation, MM = Missing Value Source: NWS Daily Summary

Daily Weather History Graph

Daily Weather History Graph

Search for Another Location

Airport:

Trip Planner

Search our weather history database for the weather conditions in past years. The results will help you decide how hot, cold, wet, or windy it might be!

Date:

Astronomy

Jul. 26, 2013 Rise Set
Actual Time 6:00 AM EDT 8:42 PM EDT
Civil Twilight 5:27 AM EDT 9:15 PM EDT
Nautical Twilight 4:45 AM EDT 9:56 PM EDT
Astronomical Twilight 3:58 AM EDT 10:43 PM EDT
Moon 10:46 PM EDT (7/26) 10:42 AM EDT (7/26)
Length of Visible Light 15h 47m
Length of Day
14h 42m
Waning Gibbous, 80% of the Moon is Illuminated
Jul 26
Waning Gibbous
Jul 29
Last Quarter
Aug 6
New
Aug 14
First Quarter
Aug 20
Full

Hourly Weather History & Observations

Time (EDT) Temp. Dew Point Humidity Pressure Visibility Wind Dir Wind Speed Gust Speed Precip Events Conditions
12:54 AM 59.0 °F 51.1 °F 75% 30.12 in 10.0 mi East 5.8 mph - N/A   Clear
1:54 AM 55.9 °F 50.0 °F 80% 30.10 in 10.0 mi ESE 4.6 mph - N/A   Clear
2:54 AM 55.0 °F 50.0 °F 83% 30.10 in 10.0 mi ESE 4.6 mph - N/A   Clear
3:54 AM 55.0 °F 48.9 °F 80% 30.10 in 10.0 mi ESE 4.6 mph - N/A   Clear
4:54 AM 53.1 °F 48.9 °F 86% 30.10 in 10.0 mi ESE 5.8 mph - N/A   Clear
5:54 AM 53.1 °F 48.0 °F 83% 30.10 in 10.0 mi SE 4.6 mph - N/A   Partly Cloudy
6:54 AM 54.0 °F 48.9 °F 83% 30.12 in 10.0 mi Calm Calm - N/A   Partly Cloudy
7:54 AM 59.0 °F 51.1 °F 75% 30.12 in 10.0 mi SSE 3.5 mph - N/A   Partly Cloudy
8:54 AM 64.0 °F 53.1 °F 67% 30.13 in 10.0 mi Calm Calm - N/A   Scattered Clouds
9:54 AM 68.0 °F 55.0 °F 63% 30.12 in 10.0 mi East 4.6 mph - N/A   Scattered Clouds
10:54 AM 70.0 °F 53.1 °F 55% 30.12 in 10.0 mi East 5.8 mph - N/A   Scattered Clouds
11:54 AM 72.0 °F 54.0 °F 53% 30.10 in 10.0 mi Variable 4.6 mph - N/A   Scattered Clouds
12:54 PM 73.0 °F 54.0 °F 51% 30.09 in 10.0 mi Variable 3.5 mph - N/A   Scattered Clouds
1:54 PM 73.9 °F 53.1 °F 48% 30.08 in 10.0 mi Calm Calm - N/A   Scattered Clouds
2:54 PM 75.0 °F 53.1 °F 46% 30.06 in 10.0 mi Calm Calm - N/A   Mostly Cloudy
3:54 PM 77.0 °F 54.0 °F 45% 30.04 in 10.0 mi ENE 9.2 mph - N/A   Mostly Cloudy
4:54 PM 78.1 °F 54.0 °F 43% 30.02 in 10.0 mi NNW 4.6 mph - N/A   Mostly Cloudy
5:54 PM 77.0 °F 53.1 °F 43% 30.02 in 10.0 mi SSE 3.5 mph - N/A   Scattered Clouds
6:54 PM 78.1 °F 55.0 °F 45% 30.01 in 10.0 mi North 6.9 mph - N/A   Scattered Clouds
7:54 PM 73.0 °F 57.0 °F 57% 30.01 in 10.0 mi NE 9.2 mph - N/A   Scattered Clouds
8:54 PM 69.1 °F 55.9 °F 63% 30.01 in 10.0 mi ENE 8.1 mph - N/A   Scattered Clouds
9:54 PM 68.0 °F 55.0 °F 63% 30.00 in 10.0 mi East 9.2 mph - N/A   Scattered Clouds
10:54 PM 66.9 °F 54.0 °F 63% 30.01 in 10.0 mi Calm Calm - N/A   Scattered Clouds
11:54 PM 64.9 °F 55.0 °F 70% 30.00 in 10.0 mi ESE 5.8 mph - N/A   Scattered Clouds